Regional Weather Roundup
Issued by NWS Wakefield, VA

Home | Current Version | Previous Version | Text Only | Print | Product List | Glossary Off
Versions: 1 2 3 4 5 6 7 8 9 10 11 12 13 14 15 16 17 18 19 20 21 22 23 24 25 26 27 28 29 30 31 32 33 34 35 36 37 38 39 40 41 42 43 44 45 46 47 48 49

000
ASUS41 KAKQ 272315
RWRAKQ

REGIONAL WEATHER ROUNDUP
NATIONAL WEATHER SERVICE WAKEFIELD VA
700 PM EDT THU AUG 27 2015

Note: "fair" indicates few or no clouds below 12,000 feet with no
significant weather and/or obstructions to visibility. * = Denotes
station may not report precipitation (e.g., rain,snow,etc.),
thunder or fog.

VAZ042-051-052>054-056-280000-
NORTHERN VIRGINIA

CITY           SKY/WX    TMP DP  RH WIND       PRES   REMARKS
WASH NATIONAL  PTCLDY    78  54  43 N7        30.09S
DULLES         PTCLDY    76  53  44 N7        30.10R
FORT BELVOIR   PTCLDY    78  55  45 NW3       30.09R
QUANTICO       PTCLDY    79  53  40 N9        30.09
FREDERICKSBRG* CLEAR     80  55  42 N5        30.08S
STAFFORD*      CLEAR     76  53  44 N3        30.13S
WARRENTON      CLEAR     78  57  49 N5        30.10R
CULPEPER*      CLEAR     75  58  53 CALM      30.10S
MANASSAS*      CLEAR     79  54  41 N5        30.09S
LEESBURG*      PTCLDY    77  59  53 N7        30.11S
WINCHESTER     CLEAR     75  52  43 N5        30.11S
FRONT ROYAL*   CLOUDY    73  55  53 E3        30.10S
LURAY*         MOCLDY    73  52  46 NE5       30.11R
$$

VAZ048-049-060>072-079>083-280000-
CENTRAL AND SOUTH CENTRAL VIRGINIA

CITY           SKY/WX    TMP DP  RH WIND       PRES   REMARKS
RICHMOND       PTCLDY    76  60  57 E3        30.08S
CHESTERFIELD*  MOCLDY    79  52  38 E5        30.10R
PETERSBURG*    CLEAR     78  66  66 E3        30.09S
HANOVER        CLEAR     75  65  70 CALM      30.10S
TAPPAHANNOCK*  CLEAR     77  55  46 CALM      30.09F
QUINTON*       FAIR      76  62  59 CALM      30.08F
CHARLOTTSVILLE CLEAR     77  58  51 E5        30.09R
GORDONSVILLE*  FAIR      76  60  56 CALM      30.08F
ORANGE*        MOCLDY    77  57  50 N3        30.11S
LOUISA*        PTCLDY    77  59  53 CALM      30.09R
BUMPASS*       FAIR      76  58  54 CALM      30.09S
FARMVILLE*     CLEAR     82  54  38 E5        30.07S
CREWE*         FAIR     N/A N/A N/A CALM      30.08F
FORT PICKETT*  FAIR      77  62  58 E5        30.08F
CHASE CITY*    FAIR      80  64  57 E5        30.08F
CLARKSVILLE*   FAIR      79  61  53 E5        30.07S
SOUTH HILL*    PTCLDY    76  64  65 CALM      30.14S
LAWRENCEVILLE* FAIR      73  66  78 CALM      30.08S
EMPORIA*       MOCLDY    77  64  65 CALM      30.10R
$$

VAZ088>098-280000-
SOUTHEAST VIRGINIA

CITY           SKY/WX    TMP DP  RH WIND       PRES   REMARKS
NORFOLK        PTCLDY    76  60  57 NE7       30.08R
VIRGINIA BEACH MOCLDY    77  60  55 NE6       30.07R
NORFOLK NAVAL  MOCLDY    77  59  53 NE6       30.10R
WEST POINT*    MOCLDY    80  60  51 CALM      30.10S
SALUDA*        FAIR      75  58  54 CALM      30.09R
NEWPORT NEWS   PTCLDY    77  55  46 NE5       30.09R
LANGLEY AFB    PTCLDY    76  58  55 NE5       30.08R
FORT EUSTIS    PTCLDY    78  58  50 NE6       30.07R
WILLIAMSBURG*  MOCLDY    81  64  57 E5        30.09S
HR EXEC AP*      N/A     75  61  60 NE3       30.10R
FRANKLIN*      MOCLDY    76  61  58 E5        30.08S
WAKEFIELD      MOCLDY    78  61  55 CALM      30.08S
$$

VAZ020-022-025-037-045-280000-
WEST CENTRAL AND SOUTHWEST VIRGINIA

CITY           SKY/WX    TMP DP  RH WIND       PRES   REMARKS
STAUNTON*      MOCLDY    79  55  43 E7        30.12S
WAYNESBORO*    MOCLDY    76  56  50 SE5       30.12S
HOT SPRINGS VA SUNNY     67  52  59 S3        30.20S
LYNCHBURG      CLEAR     77  56  48 E5        30.10F
DANVILLE       CLEAR     80  60  50 E3        30.07F
SOUTH BOSTON*  FAIR      78  59  52 CALM      30.07F
MARTINSVILLE   MOSUNNY   77  61  56 CALM      30.10S
ROANOKE        MOSUNNY   78  56  46 SE9       30.11S
BLACKSBURG     CLOUDY    74  60  62 NE5       30.17R
DUBLIN*        CLOUDY    75  58  54 CALM      30.15R
MARION*        PTSUNNY   74  58  56 E3        30.16S
HILLSVILLE*    SUNNY     69  59  69 CALM      30.15R
RICHLANDS*     FAIR      70  28  20 NE6       30.16S
WISE*          NOT AVBL
ABINGDON*      PTSUNNY   77  55  46 NE3       30.11S
$$

MDZ021>025-VAZ099-100-280000-
SOUTHERN MARYLAND AND THE DELMARVA PENINSULA

CITY           SKY/WX    TMP DP  RH WIND       PRES   REMARKS
PATUXENT RIVER MOCLDY    74  56  53 N3        30.09R
BAY BRIDGE APT   N/A     73  54  49 NE3       30.09S
LEONARDTOWN    MOCLDY    73  55  53 CALM      30.11S
DOVER          MOCLDY    76  60  58 NW8       30.06S
GEORGETOWN     MOCLDY    76  57  51 NE3       30.08S
EASTON         PTCLDY    77  59  53 N6        30.12S
CAMBRIDGE      PTCLDY    77  52  41 N3        30.08S
SALISBURY      PTCLDY    76  57  51 NW3       30.08R
OCEAN CITY     PTCLDY    74  61  63 CALM      30.08S
WALLOPS ISLAND PTCLDY    76  59  55 W6        30.09R
ACCOMACK*      PTCLDY    72  61  68 NW6       30.09R
$$

NCZ012>017-030>032-280000-
NORTH CENTRAL AND EASTERN NORTH CAROLINA

CITY           SKY/WX    TMP DP  RH WIND       PRES   REMARKS
ROANOKE RAPIDS FAIR      77  61  57 E3        30.08R
RALEIGH        MOCLDY    80  60  50 E8        30.07R
ELIZABETH CITY CLOUDY    75  62  64 NE9       30.07R
AHOSKIE*       PTCLDY    74  62  65 CALM      30.07F
EDENTON*       CLOUDY    74  65  74 NE3       30.07S
CURRITUCK*     MOCLDY    76  58  53 NE6       30.08R
KILL DEVIL HLS CLOUDY    76  62  62 NE8       30.05S
MANTEO         CLOUDY    75  63  65 NE10      30.06R
CAPE HATTERAS  LGT RAIN  71  70  96 E10       30.04R
TARBORO*       FAIR      76  64  65 E3        30.08S
GOLDSBORO      PTCLDY    76  67  76 E8        30.05R
WASHINGTON     DRIZZLE   73  67  84 NE5       30.06S
GREENVILLE     CLOUDY    73  66  78 NE6       30.08S
NEW BERN       CLOUDY    76  64  66 NE17      30.06R
WILMINGTON     MOCLDY    78  71  79 N12       30.01S
$$

VAZ048-280000-
ELSEWHERE

CITY           SKY/WX    TMP DP  RH WIND       PRES   REMARKS
HARRISBURG PA  MOCLDY    73  56  54 N5        30.09S
BALTIMORE      PTCLDY    75  57  53 CALM      30.09R
ANNAPOLIS      CLEAR     76  58  53 NE6       30.08S
ANDREWS AFB    PTCLDY    76  55  48 E7        30.08S
PHILADELPHIA   PTCLDY    79  50  36 NW13      30.08S
HENDERSON NC   MOCLDY    76  60  57 CALM      30.08S
GREENSBORO     MOSUNNY   79  55  43 NE8       30.07S
ROCKY MOUNT    MOCLDY    77  62  59 NE6       30.07S
$$

VAZ100-280000-
MARINE

STATION/POSITION TIME  TEMP    WIND        PRES    WAVE   SWELL
                       AIR SEA DIR/SP/G            HT/PER HT/PER
                 (UTC) (F)     (DEG/KT/KT) (MB)    (FT/S) (FT/S)
BRANDYWINE LGT   2200   75 75  320/  5/  7 1018.4S
CAPE MAY NJ      2200   76 80  280/  6/  7 1017.8S
LEWES DE         2200   76 76   10/  5/  6 1018.1R
15NM E FENWICK I 2250   75 78  360/  4/  6 1018.4S   2/11   2/11
OCEAN-CITY-INLET 2200   74 78  100/  5/  6 1017.6R
WACHAPREAGUE VA  2242   77 79              1018.7R
THOMAS POINT MD  2300   75 80   40/  8/ 10 1019.2
GOOSES REEF MD   2300   77 80   60/  6/  8 1019.8R
COVE POINT MD    2200   76      40/  5/  8 1019.4R
SOLOMONS ISLAND  2200      81                N/A
BISHOPS HEAD MD  2200   77 79  360/  5/  8 1017.6R
PINEY POINT MD   2200          100/  4/  7   N/A
POTOMAC MD       2300   78 80   50/  4/  6 1017.9R   0
CAMBRIDGE MD     2200   77 80  350/  7/ 10 1017.7R
LEWISETTA VA     2200   77 80   80/  4/  7 1018.4R
RAPPAHANNOCK LGT 2200           10/  6/  8 1019.2R
STINGRAY PT      2300   77 80   50/  6/ 10 1019.3R   1
YORK RVR RNG VA  2200   76      60/  9/ 10 1018.1R
YORKTOWN VA      2200   77 81   80/  9/ 11 1018.3R
JAMESTOWN VA     2300   78 82   80/  4/  8   N/A
DOMINION TERM VA 2200   78      90/  6/ 10 1018.4S
KIPTOPEKE VA     2200      80   30/  6/  9   N/A
CHES BAY BRIDGE  2200   76 79   30/  3/  6 1018.0S
CAPE HENRY VA    2200   76      40/  6/  8   N/A
CHESAPEAKE LGHT  2200   75      50/ 10/ 11 1018.9F
WILLOUBY STN VA  2200   76      30/ 10/ 11 1019.5S
CAPE HENRY BUOY  2228      79                N/A     3/10   2/11
1ST LANDING BUOY 2300      79              1018.2R   2/ 4
CAPE CHARLES BUO 2226      79                N/A     3/10   3/10
OFFSHORE WE BUOY 2211      78                N/A     3/10   3/10
64NM E OF VA BCH 2250   77 80   30/ 14/ 16 1017.4R   4/ 9   3/ 9
DUCK PIER NC     2200   76 78   30/ 16/ 18 1016.9R
44100 DUCK FRF   2224      79                N/A     4/ 5   2/13
44056 DUCK FRF   2211      78                N/A     4/ 5   2/12
OREGON INLET NC  2200   77 79   30/ 12/ 17 1017.0R
HATTERAS NC      2200   73 81   70/  9/ 14 1016.3R


USA.gov is the U.S. government's official web portal to all federal, state and local government web resources and services.